Houston Clover, TX

10:07 PM CDT on May 25, 2017 (GMT -0500)
Clover

Weather History for KLVJ - February, 2014

Change the Weather History Date:

Sunday, February 23, 2014

  Actual Average (KEFD) Record (KEFD)
Temperature  
Mean Temperature 71 °F -  
Max Temperature 80 °F 66 °F 82 °F (2014)
Min Temperature 62 °F 48 °F 35 °F (2015)
Cooling Degree Days 6    
Growing Degree Days 21 (Base 50)    
Moisture  
Dew Point 63 °F    
Average Humidity 81    
Maximum Humidity 93    
Minimum Humidity 58    
Precipitation  
Precipitation 0.01 in - - ()
Sea Level Pressure  
Sea Level Pressure 29.96 in    
Wind  
Wind Speed 3 mph (NE)    
Max Wind Speed 8 mph    
Max Gust Speed -    
Visibility 5 miles    
Events Fog    
Averages and records for this station are not official NWS values.
T = Trace of Precipitation, MM = Missing Value Source: NWS Daily Summary

Daily Weather History Graph

Daily Weather History Graph

Search for Another Location

Airport or City:

Trip Planner

Search our weather history database for the weather conditions in past years. The results will help you decide how hot, cold, wet, or windy it might be!

Date:

Astronomy

Feb. 23, 2014 Rise Set
Actual Time 6:52 AM CST 6:16 PM CST
Civil Twilight 6:28 AM CST 6:40 PM CST
Nautical Twilight 6:00 AM CST 7:08 PM CST
Astronomical Twilight 5:33 AM CST 7:35 PM CST
Moon 1:39 AM CST (2/23) 12:32 PM CST (2/23)
Length of Visible Light 12h 11m
Length of Day
11h 23m
Last Quarter, 38% of the Moon is Illuminated
Feb 23
Last Quarter
Mar 1
New
Mar 8
First Quarter
Mar 16
Full
Mar 23
Last Quarter

Hourly Weather History & Observations

Time (CST) Temp. Heat Index Dew Point Humidity Pressure Visibility Wind Dir Wind Speed Gust Speed Precip Events Conditions
12:48 AM 62.6 °F - 57.2 °F 82% 29.95 in 5.0 mi Calm Calm - N/A   Overcast
12:53 AM 62.1 °F - 57.9 °F 86% 29.95 in 5.0 mi ENE 4.6 mph - N/A   Overcast
1:02 AM 62.1 °F - 57.9 °F 86% 29.95 in 3.0 mi ENE 4.6 mph - N/A   Overcast
1:12 AM 62.1 °F - 57.9 °F 86% 29.95 in 2.5 mi East 3.5 mph - N/A   Overcast
1:24 AM 62.1 °F - 57.9 °F 86% 29.95 in 1.5 mi Calm Calm - N/A   Overcast
1:49 AM 62.6 °F - 59.0 °F 88% 29.94 in 0.8 mi East 3.5 mph - N/A   Mist
1:53 AM 62.1 °F - 59.0 °F 90% 29.94 in 0.8 mi East 3.5 mph - N/A   Mist
2:53 AM 62.1 °F - 59.0 °F 90% 29.92 in 0.8 mi East 3.5 mph - N/A   Mist
3:20 AM 62.1 °F - 59.0 °F 90% 29.92 in 1.0 mi East 4.6 mph - N/A   Mist
3:46 AM 62.1 °F - 59.0 °F 90% 29.92 in 0.8 mi East 4.6 mph - N/A   Mist
3:53 AM 62.1 °F - 59.0 °F 90% 29.92 in 0.8 mi East 3.5 mph - N/A   Mist
4:53 AM 63.0 °F - 60.1 °F 90% 29.92 in 0.5 mi Calm Calm - 0.00 in Fog Fog
5:53 AM 63.0 °F - 60.1 °F 90% 29.93 in 0.5 mi Calm Calm - 0.01 in Fog Fog
6:53 AM 63.0 °F - 61.0 °F 93% 29.95 in 0.2 mi Calm Calm - N/A Fog Fog
7:53 AM 64.0 °F - 62.1 °F 93% 29.96 in 0.2 mi Calm Calm - N/A Fog Fog
8:53 AM 66.0 °F - 64.0 °F 93% 29.99 in 0.2 mi Calm Calm - N/A Fog Fog
9:41 AM 68.0 °F - 64.9 °F 90% 29.99 in 1.8 mi SSW 3.5 mph - N/A   Overcast
9:53 AM 68.0 °F - 66.0 °F 93% 29.99 in 1.8 mi South 4.6 mph - N/A   Overcast
10:00 AM 68.0 °F - 66.0 °F 93% 29.99 in 3.0 mi SSW 5.8 mph - N/A   Overcast
10:42 AM 73.0 °F - 68.0 °F 84% 29.99 in 9.0 mi WSW 5.8 mph - N/A   Overcast
10:53 AM 73.0 °F - 68.0 °F 84% 29.99 in 9.0 mi WSW 8.1 mph - N/A   Mostly Cloudy
11:05 AM 73.9 °F - 66.9 °F 79% 29.99 in 9.0 mi SW 8.1 mph - N/A   Overcast
11:53 AM 75.0 °F - 66.9 °F 76% 29.98 in 10.0 mi Variable 5.8 mph - N/A   Overcast
12:16 PM 75.9 °F - 66.0 °F 71% 29.98 in 10.0 mi West 5.8 mph - N/A   Overcast
12:51 PM 78.8 °F - 66.2 °F 65% 29.96 in 10.0 mi West 5.8 mph - N/A   Mostly Cloudy
12:53 PM 78.1 °F - 66.0 °F 66% 29.96 in 10.0 mi WSW 8.1 mph - N/A   Mostly Cloudy
1:53 PM 79.0 °F - 66.0 °F 64% 29.93 in 10.0 mi NW 6.9 mph - N/A   Scattered Clouds
2:53 PM 80.1 °F 81.9 °F 64.9 °F 60% 29.92 in 10.0 mi Variable 4.6 mph - N/A   Scattered Clouds
3:53 PM 80.1 °F 81.7 °F 64.0 °F 58% 29.91 in 10.0 mi Variable 3.5 mph - N/A   Mostly Cloudy
4:53 PM 80.1 °F 81.9 °F 64.9 °F 60% 29.92 in 10.0 mi WNW 6.9 mph - N/A   Clear
5:53 PM 79.0 °F - 64.0 °F 60% 29.93 in 10.0 mi NNW 6.9 mph - N/A   Mostly Cloudy
6:36 PM 75.9 °F - 64.9 °F 69% 29.95 in 9.0 mi NE 4.6 mph - N/A   Overcast
6:53 PM 75.0 °F - 64.9 °F 71% 29.96 in 9.0 mi East 4.6 mph - N/A   Overcast
7:05 PM 75.0 °F - 64.9 °F 71% 29.96 in 9.0 mi Calm Calm - N/A   Overcast
7:53 PM 73.9 °F - 64.9 °F 73% 29.98 in 9.0 mi North 3.5 mph - N/A   Overcast
8:53 PM 71.1 °F - 64.0 °F 78% 30.00 in 8.0 mi North 3.5 mph - N/A   Partly Cloudy
9:53 PM 68.0 °F - 63.0 °F 84% 30.01 in 7.0 mi North 3.5 mph - N/A   Clear
10:53 PM 66.9 °F - 63.0 °F 87% 30.01 in 7.0 mi Calm Calm - N/A   Mostly Cloudy
11:53 PM 66.0 °F - 63.0 °F 90% 30.01 in 6.0 mi Calm Calm - N/A   Clear
11:59 PM 64.9 °F - 62.1 °F 90% 30.01 in 1.8 mi Calm Calm - N/A   Clear